Weather History for KFTW - April, 2013

Change the Weather History Date:

Friday, April 26, 2013

  Actual Average Record
Temperature  
Mean Temperature 67 °F -  
Max Temperature 77 °F 76 °F 89 °F (2012)
Min Temperature 59 °F 55 °F 48 °F (2007)
Cooling Degree Days 2    
Growing Degree Days 17 (Base 50)    
Moisture  
Dew Point 57 °F    
Average Humidity 73    
Maximum Humidity 87    
Minimum Humidity 52    
Precipitation  
Precipitation 0.00 in - - ()
Sea Level Pressure  
Sea Level Pressure 30.06 in    
Wind  
Wind Speed 11 mph (SSE)    
Max Wind Speed 17 mph    
Max Gust Speed 25 mph    
Visibility 10 miles    
Events      
Averages and records for this station are not official NWS values.
T = Trace of Precipitation, MM = Missing Value Source: NWS Daily Summary

Daily Weather History Graph

Daily Weather History Graph

Search for Another Location

Airport or City:

Trip Planner

Search our weather history database for the weather conditions in past years. The results will help you decide how hot, cold, wet, or windy it might be!

Date:

Astronomy

Apr. 26, 2013 Rise Set
Actual Time 6:47 AM CDT 8:07 PM CDT
Civil Twilight 6:21 AM CDT 8:33 PM CDT
Nautical Twilight 5:50 AM CDT 9:04 PM CDT
Astronomical Twilight 5:17 AM CDT 9:37 PM CDT
Moon 9:27 PM CDT (4/26) 7:18 AM CDT (4/26)
Length of Visible Light 14h 12m
Length of Day
13h 20m
Full, 99% of the Moon is Illuminated
Apr 26
Full
May 2
Last Quarter
May 9
New
May 17
First Quarter
May 24
Full

Hourly Weather History & Observations

Time (CDT) Temp. Dew Point Humidity Pressure Visibility Wind Dir Wind Speed Gust Speed Precip Events Conditions
12:53 AM 62.1 °F 44.1 °F 52% 30.13 in 10.0 mi SE 9.2 mph - N/A   Clear
1:53 AM 62.6 °F 44.6 °F 52% 30.16 in 10.0 mi SE 8.1 mph - N/A   Overcast
2:53 AM 62.1 °F 45.0 °F 53% 30.13 in 10.0 mi SE 8.1 mph - N/A   Overcast
3:53 AM 62.1 °F 45.0 °F 53% 30.10 in 10.0 mi ESE 10.4 mph - N/A   Overcast
4:53 AM 62.1 °F 45.0 °F 53% 30.10 in 10.0 mi ESE 9.2 mph - N/A   Overcast
5:18 AM 62.6 °F 44.6 °F 52% 30.09 in 10.0 mi ESE 10.4 mph - N/A   Overcast
5:53 AM 61.0 °F 45.0 °F 56% 30.09 in 10.0 mi SE 10.4 mph - N/A   Overcast
6:53 AM 61.0 °F 45.0 °F 56% 30.10 in 10.0 mi ESE 12.7 mph - N/A   Overcast
7:53 AM 59.0 °F 50.0 °F 72% 30.12 in 10.0 mi SSE 12.7 mph - N/A   Overcast
8:53 AM 60.1 °F 52.0 °F 75% 30.13 in 10.0 mi SE 8.1 mph - 0.00 in   Overcast
9:53 AM 61.0 °F 53.1 °F 75% 30.14 in 10.0 mi SE 9.2 mph - N/A   Overcast
10:53 AM 59.0 °F 54.0 °F 83% 30.14 in 10.0 mi SE 10.4 mph - 0.00 in   Overcast
11:53 AM 62.1 °F 57.9 °F 86% 30.12 in 9.0 mi SE 13.8 mph - N/A   Overcast
12:00 PM 62.6 °F 57.2 °F 82% 30.13 in 9.0 mi SSE 12.7 mph 21.9 mph N/A   Overcast
12:53 PM 66.0 °F 61.0 °F 84% 30.09 in 10.0 mi SSE 13.8 mph - N/A   Overcast
1:32 PM 66.2 °F 60.8 °F 83% 30.10 in 10.0 mi South 13.8 mph - N/A   Overcast
1:53 PM 66.0 °F 61.0 °F 84% 30.07 in 10.0 mi SSE 11.5 mph - N/A   Overcast
2:53 PM 69.1 °F 64.9 °F 87% 30.04 in 10.0 mi South 15.0 mph - N/A   Overcast
3:31 PM 71.6 °F 66.2 °F 83% 30.04 in 10.0 mi South 12.7 mph 20.7 mph N/A   Mostly Cloudy
3:53 PM 73.9 °F 66.9 °F 79% 30.01 in 10.0 mi South 17.3 mph - N/A   Mostly Cloudy
4:53 PM 75.0 °F 66.0 °F 73% 29.98 in 10.0 mi South 16.1 mph 25.3 mph N/A   Scattered Clouds
5:53 PM 75.9 °F 64.0 °F 67% 29.96 in 10.0 mi South 15.0 mph 24.2 mph N/A   Mostly Cloudy
6:53 PM 73.9 °F 66.0 °F 76% 29.95 in 10.0 mi South 16.1 mph 24.2 mph N/A   Scattered Clouds
7:53 PM 73.9 °F 66.0 °F 76% 29.96 in 10.0 mi South 16.1 mph - N/A   Clear
8:53 PM 72.0 °F 66.0 °F 81% 29.97 in 10.0 mi South 8.1 mph - N/A   Partly Cloudy
9:53 PM 71.1 °F 66.9 °F 87% 29.98 in 10.0 mi South 10.4 mph - N/A   Clear
10:53 PM 71.1 °F 66.9 °F 87% 29.98 in 10.0 mi South 13.8 mph - N/A   Clear
11:53 PM 71.1 °F 66.9 °F 87% 29.98 in 10.0 mi South 15.0 mph 21.9 mph N/A   Clear